Buckland, AK

7:04 PM AKST on February 20, 2018 (GMT -0900)
Buckland

Weather History for PABL - June, 2013

Change the Weather History Date:

Wednesday, June 12, 2013

  Actual Average (PASK) Record (PASK)
Temperature  
Mean Temperature 52 °F -  
Max Temperature 66 °F 55 °F 69 °F (2013)
Min Temperature 37 °F 39 °F 33 °F (2012)
Degree Days  
Heating Degree Days 14    
Growing Degree Days 2 (Base 50)    
Moisture  
Dew Point 37 °F    
Average Humidity 57    
Maximum Humidity 87    
Minimum Humidity 32    
Precipitation  
Precipitation 0.00 in - - ()
Sea Level Pressure  
Sea Level Pressure 30.14 in    
Wind  
Wind Speed 9 mph (NNW)    
Max Wind Speed 16 mph    
Max Gust Speed 20 mph    
Visibility 10 miles    
Events      
Averages and records for this station are not official NWS values.
T = Trace of Precipitation, MM = Missing Value Source: NWS Daily Summary

Daily Weather History Graph

Daily Weather History Graph

Search for Another Location

Airport or City:

Trip Planner

Search our weather history database for the weather conditions in past years. The results will help you decide how hot, cold, wet, or windy it might be!

Date:

Astronomy

Jun. 12, 2013 Rise Set
Actual Time 2:52 AM AKDT 2:12 AM AKDT
Civil Twilight Sun does not rise Sun does not rise
Nautical Twilight Sun does not rise Sun does not rise
Astronomical Twilight Sun does not rise Sun does not rise
Moon 9:37 AM AKDT (6/12) 1:58 AM AKDT (6/12)
Length of Visible Light 24h 00m
Length of Day
23h 19m
Waxing Crescent, 15% of the Moon is Illuminated
Jun 12
Waxing Crescent
Jun 16
First Quarter
Jun 23
Full
Jun 29
Last Quarter
Jul 7
New

Hourly Weather History & Observations

Time (AKDT) Temp. Windchill Dew Point Humidity Pressure Visibility Wind Dir Wind Speed Gust Speed Precip Events Conditions
12:16 AM 53.6 °F - 41.0 °F 62% 30.19 in 10.0 mi NW 9.2 mph - N/A   Clear
12:36 AM 48.2 °F - 39.2 °F 71% 30.20 in 10.0 mi NW 8.1 mph - N/A   Clear
12:56 AM 46.4 °F 41.9 °F 37.4 °F 71% 30.20 in 10.0 mi NW 9.2 mph - N/A   Clear
1:16 AM 44.6 °F 40.7 °F 37.4 °F 76% 30.20 in 10.0 mi NNW 6.9 mph - N/A   Clear
1:36 AM 44.6 °F 40.7 °F 37.4 °F 76% 30.20 in 10.0 mi NW 6.9 mph - N/A   Clear
1:56 AM 42.8 °F 37.0 °F 35.6 °F 76% 30.20 in 10.0 mi NW 10.4 mph - N/A   Clear
2:16 AM 42.8 °F 38.6 °F 35.6 °F 76% 30.20 in 10.0 mi NW 6.9 mph - N/A   Clear
2:36 AM 41.0 °F 35.8 °F 35.6 °F 81% 30.20 in 10.0 mi NNW 8.1 mph - N/A   Clear
2:56 AM 41.0 °F 35.2 °F 35.6 °F 81% 30.20 in 10.0 mi NNW 9.2 mph - N/A   Clear
3:16 AM 39.2 °F 34.2 °F 33.8 °F 81% 30.20 in 10.0 mi North 6.9 mph - N/A   Clear
3:36 AM 39.2 °F 34.2 °F 33.8 °F 81% 30.20 in 10.0 mi North 6.9 mph - N/A   Clear
3:56 AM 37.4 °F 32.1 °F 33.8 °F 87% 30.21 in 10.0 mi North 6.9 mph - N/A   Clear
4:16 AM 37.4 °F 31.4 °F 33.8 °F 87% 30.21 in 10.0 mi North 8.1 mph - N/A   Clear
4:36 AM 37.4 °F 32.1 °F 33.8 °F 87% 30.21 in 10.0 mi North 6.9 mph - N/A   Clear
4:56 AM 37.4 °F 31.4 °F 33.8 °F 87% 30.21 in 10.0 mi NNW 8.1 mph - N/A   Clear
5:16 AM 37.4 °F 32.1 °F 33.8 °F 87% 30.21 in 10.0 mi North 6.9 mph - N/A   Clear
5:36 AM 37.4 °F 32.1 °F 33.8 °F 87% 30.21 in 10.0 mi North 6.9 mph - N/A   Clear
5:56 AM 37.4 °F 32.8 °F 33.8 °F 87% 30.21 in 10.0 mi North 5.8 mph - N/A   Clear
6:16 AM 39.2 °F 35.9 °F 33.8 °F 81% 30.21 in 10.0 mi North 4.6 mph - N/A   Clear
6:36 AM 39.2 °F 35.9 °F 33.8 °F 81% 30.21 in 10.0 mi North 4.6 mph - N/A   Clear
6:56 AM 41.0 °F 36.4 °F 33.8 °F 76% 30.21 in 10.0 mi North 6.9 mph - N/A   Clear
7:16 AM 42.8 °F 38.0 °F 33.8 °F 70% 30.20 in 10.0 mi North 8.1 mph - N/A   Clear
7:36 AM 42.8 °F 38.0 °F 35.6 °F 76% 30.20 in 10.0 mi NNW 8.1 mph - N/A   Clear
7:56 AM 42.8 °F 38.6 °F 35.6 °F 76% 30.20 in 10.0 mi North 6.9 mph - N/A   Clear
8:16 AM 44.6 °F 42.2 °F 35.6 °F 71% 30.20 in 10.0 mi North 4.6 mph - N/A   Clear
8:36 AM 46.4 °F 43.5 °F 35.6 °F 66% 30.20 in 10.0 mi North 5.8 mph - N/A   Clear
8:56 AM 46.4 °F 43.5 °F 35.6 °F 66% 30.19 in 10.0 mi NNW 5.8 mph - N/A   Clear
9:16 AM 48.2 °F - 35.6 °F 62% 30.19 in 10.0 mi NNW 8.1 mph - N/A   Clear
9:36 AM 48.2 °F - 35.6 °F 62% 30.19 in 10.0 mi North 9.2 mph - N/A   Clear
9:56 AM 50.0 °F - 35.6 °F 58% 30.19 in 10.0 mi NNW 9.2 mph - N/A   Clear
10:16 AM 50.0 °F - 35.6 °F 58% 30.18 in 10.0 mi NNW 9.2 mph - N/A   Clear
10:36 AM 51.8 °F - 37.4 °F 58% 30.18 in 10.0 mi NW 9.2 mph - N/A   Clear
10:56 AM 53.6 °F - 37.4 °F 54% 30.18 in 10.0 mi NW 8.1 mph - N/A   Clear
11:16 AM 53.6 °F - 37.4 °F 54% 30.17 in 10.0 mi NW 6.9 mph - N/A   Clear
11:36 AM 55.4 °F - 37.4 °F 51% 30.17 in 10.0 mi NW 9.2 mph - N/A   Clear
11:56 AM 57.2 °F - 37.4 °F 48% 30.16 in 10.0 mi NNW 9.2 mph - N/A   Clear
12:16 PM 59.0 °F - 39.2 °F 48% 30.16 in 10.0 mi NW 8.1 mph - N/A   Clear
12:36 PM 60.8 °F - 37.4 °F 42% 30.16 in 10.0 mi NNW 9.2 mph - N/A   Clear
12:56 PM 60.8 °F - 39.2 °F 45% 30.15 in 10.0 mi NNW 10.4 mph - N/A   Clear
1:16 PM 60.8 °F - 39.2 °F 45% 30.14 in 10.0 mi NNW 10.4 mph - N/A   Clear
1:36 PM 62.6 °F - 39.2 °F 42% 30.14 in 10.0 mi NNW 11.5 mph - N/A   Clear
1:56 PM 62.6 °F - 37.4 °F 39% 30.14 in 10.0 mi NNW 11.5 mph - N/A   Clear
2:16 PM 62.6 °F - 37.4 °F 39% 30.13 in 10.0 mi NNW 11.5 mph - N/A   Clear
2:36 PM 64.4 °F - 39.2 °F 40% 30.13 in 10.0 mi NNW 10.4 mph - N/A   Clear
2:56 PM 64.4 °F - 37.4 °F 37% 30.12 in 10.0 mi NNW 10.4 mph - N/A   Clear
3:16 PM 64.4 °F - 39.2 °F 40% 30.12 in 10.0 mi NNW 12.7 mph - N/A   Clear
3:36 PM 64.4 °F - 35.6 °F 34% 30.11 in 10.0 mi NNW 15.0 mph - N/A   Clear
3:56 PM 66.2 °F - 37.4 °F 35% 30.10 in 10.0 mi North 15.0 mph 18.4 mph N/A   Clear
4:16 PM 66.2 °F - 37.4 °F 35% 30.10 in 10.0 mi North 11.5 mph 18.4 mph N/A   Clear
4:36 PM 66.2 °F - 37.4 °F 35% 30.10 in 10.0 mi NNW 13.8 mph 19.6 mph N/A   Clear
4:56 PM 66.2 °F - 35.6 °F 32% 30.09 in 10.0 mi NNW 13.8 mph 19.6 mph N/A   Clear
5:16 PM 66.2 °F - 35.6 °F 32% 30.09 in 10.0 mi North 13.8 mph 19.6 mph N/A   Clear
5:36 PM 66.2 °F - 37.4 °F 35% 30.09 in 10.0 mi NNW 13.8 mph 18.4 mph N/A   Clear
5:56 PM 66.2 °F - 41.0 °F 40% 30.09 in 10.0 mi NNW 12.7 mph 19.6 mph N/A   Clear
6:16 PM 66.2 °F - 39.2 °F 37% 30.08 in 10.0 mi NNW 12.7 mph 18.4 mph N/A   Clear
6:36 PM 66.2 °F - 42.8 °F 43% 30.08 in 10.0 mi NNW 13.8 mph 19.6 mph N/A   Clear
6:56 PM 66.2 °F - 39.2 °F 37% 30.08 in 10.0 mi NNW 16.1 mph - N/A   Clear
7:16 PM 66.2 °F - 39.2 °F 37% 30.07 in 10.0 mi NNW 13.8 mph - N/A   Clear
7:36 PM 66.2 °F - 39.2 °F 37% 30.07 in 10.0 mi North 12.7 mph - N/A   Clear
7:56 PM 66.2 °F - 41.0 °F 40% 30.07 in 10.0 mi North 10.4 mph - N/A   Clear
8:16 PM 66.2 °F - 39.2 °F 37% 30.06 in 10.0 mi NNW 10.4 mph - N/A   Clear
8:36 PM 64.4 °F - 41.0 °F 42% 30.06 in 10.0 mi NNW 8.1 mph - N/A   Clear
8:56 PM 64.4 °F - 41.0 °F 42% 30.06 in 10.0 mi NNW 10.4 mph - N/A   Clear
9:16 PM 62.6 °F - 42.8 °F 48% 30.06 in 10.0 mi NNW 9.2 mph - N/A   Clear
9:36 PM 62.6 °F - 42.8 °F 48% 30.06 in 10.0 mi NNW 9.2 mph - N/A   Clear
9:56 PM 60.8 °F - 42.8 °F 52% 30.06 in 10.0 mi NNW 9.2 mph - N/A   Clear
10:16 PM 60.8 °F - 42.8 °F 52% 30.06 in 10.0 mi NW 8.1 mph - N/A   Clear
10:36 PM 57.2 °F - 39.2 °F 51% 30.06 in 10.0 mi NW 10.4 mph - N/A   Clear
10:56 PM 55.4 °F - 39.2 °F 54% 30.06 in 10.0 mi NW 11.5 mph - N/A   Clear
11:16 PM 53.6 °F - 39.2 °F 58% 30.06 in 10.0 mi NW 10.4 mph - N/A   Clear
11:36 PM 53.6 °F - 39.2 °F 58% 30.06 in 10.0 mi NW 10.4 mph - N/A   Clear
11:56 PM 51.8 °F - 37.4 °F 58% 30.05 in 10.0 mi NW 10.4 mph - N/A   Clear